UAE5QL OMDB-FSIA

Flight info

Callsign UAE5QL
Flight time 4h 2m
Altitude 34000
Route ELUDA G783 UKRAG/N0491F350 L710 DEDSO/N0491F340 R401 SUHIL UM314 EPSIV/N0488F360 UM314 UDLET/N0485F350 UM314 PRA DULMA
Aircraft B77W/H-SDE1E2E3FGHIJ2J3J4J5M1RWXY/LB1D1

Departure

Time 2026-05-07 16:31
Airport Dubai International Airport (OMDB)

Arrival

Time 2026-05-07 20:33
Airport Seychelles International Airport (FSIA)
Time Latitude Longitude Altitude Speed Heading
2026-05-07 16:07 25.23668 55.40100 61 ft 0 kts 120°
2026-05-07 16:22 25.23676 55.40087 56 ft 2 kts 130°
2026-05-07 16:22 25.23687 55.40074 58 ft 2 kts 143°
2026-05-07 16:23 25.23701 55.40065 55 ft 2 kts 160°
2026-05-07 16:23 25.23717 55.40061 64 ft 2 kts 179°
2026-05-07 16:23 25.23734 55.40062 55 ft 2 kts 193°
2026-05-07 16:23 25.23749 55.40067 59 ft 2 kts 204°
2026-05-07 16:24 25.23761 55.40074 55 ft 1 kts 209°
2026-05-07 16:24 25.23764 55.40075 55 ft 0 kts 210°
2026-05-07 16:26 25.23761 55.40073 55 ft 1 kts 210°
2026-05-07 16:27 25.23748 55.40066 55 ft 3 kts 210°
2026-05-07 16:27 25.23727 55.40052 55 ft 4 kts 210°
2026-05-07 16:27 25.23701 55.40030 55 ft 6 kts 236°
2026-05-07 16:27 25.23679 55.39986 55 ft 8 kts 239°
2026-05-07 16:28 25.23655 55.39945 57 ft 0 kts 237°
2026-05-07 16:28 25.23652 55.39940 53 ft 1 kts 237°
2026-05-07 16:28 25.23645 55.39927 53 ft 3 kts 237°
2026-05-07 16:28 25.23629 55.39901 53 ft 5 kts 237°
2026-05-07 16:29 25.23608 55.39862 52 ft 7 kts 240°
2026-05-07 16:29 25.23577 55.39817 53 ft 8 kts 231°
2026-05-07 16:29 25.23538 55.39767 51 ft 9 kts 228°
2026-05-07 16:29 25.23517 55.39697 59 ft 11 kts 259°
2026-05-07 16:30 25.23523 55.39612 53 ft 12 kts 292°
2026-05-07 16:30 25.23568 55.39522 48 ft 18 kts 299°
2026-05-07 16:30 25.23763 55.39173 40 ft 96 kts 302°
2026-05-07 16:30 25.24257 55.38287 18 ft 172 kts 302°
2026-05-07 16:31 25.24948 55.37064 363 ft 199 kts 302°
2026-05-07 16:31 25.25644 55.35794 1218 ft 191 kts 300°
2026-05-07 16:31 25.26356 55.34599 1990 ft 190 kts 301°
2026-05-07 16:31 25.27112 55.33384 2490 ft 194 kts 302°
2026-05-07 16:32 25.27889 55.32139 2970 ft 198 kts 303°
2026-05-07 16:32 25.28679 55.30874 3456 ft 201 kts 303°
2026-05-07 16:32 25.29235 55.29480 3853 ft 201 kts 271°
2026-05-07 16:32 25.28920 55.27981 4183 ft 206 kts 245°
2026-05-07 16:33 25.28291 55.26502 4460 ft 219 kts 245°
2026-05-07 16:33 25.27630 55.24935 4803 ft 230 kts 245°
2026-05-07 16:33 25.26938 55.23303 5246 ft 238 kts 245°
2026-05-07 16:33 25.26236 55.21650 5776 ft 243 kts 245°
2026-05-07 16:34 25.25508 55.19939 6293 ft 250 kts 245°
2026-05-07 16:34 25.24723 55.18216 6804 ft 252 kts 234°
2026-05-07 16:34 25.23385 55.16975 7259 ft 257 kts 200°
2026-05-07 16:34 25.21608 55.16706 7661 ft 263 kts 176°
2026-05-07 16:35 25.19772 55.16937 8116 ft 269 kts 163°
2026-05-07 16:35 25.18171 55.17999 8638 ft 278 kts 133°
2026-05-07 16:35 25.17106 55.19850 8937 ft 293 kts 118°
2026-05-07 16:35 25.16166 55.21880 9491 ft 300 kts 119°
2026-05-07 16:36 25.15211 55.23909 10086 ft 304 kts 119°
2026-05-07 16:36 25.14226 55.25978 10796 ft 305 kts 119°
2026-05-07 16:36 25.13241 55.28042 11579 ft 304 kts 120°
2026-05-07 16:36 25.12253 55.30102 12397 ft 303 kts 119°
2026-05-07 16:37 25.11265 55.32156 13166 ft 304 kts 118°
2026-05-07 16:37 25.10298 55.34235 13898 ft 306 kts 116°
2026-05-07 16:37 25.09417 55.36379 14605 ft 308 kts 114°
2026-05-07 16:37 25.08535 55.38565 15241 ft 313 kts 115°
2026-05-07 16:38 25.07631 55.40783 15842 ft 320 kts 115°
2026-05-07 16:38 25.06737 55.43012 16450 ft 328 kts 113°
2026-05-07 16:38 25.05817 55.45405 16604 ft 350 kts 113°
2026-05-07 16:38 25.04846 55.47957 16768 ft 372 kts 112°
2026-05-07 16:39 25.03812 55.50660 16896 ft 393 kts 113°
2026-05-07 16:39 25.02723 55.53489 17184 ft 408 kts 112°
2026-05-07 16:39 25.01564 55.56386 17628 ft 418 kts 116°
2026-05-07 16:39 25.00125 55.59202 18135 ft 425 kts 121°
2026-05-07 16:40 24.98534 55.61973 18680 ft 429 kts 122°
2026-05-07 16:40 24.96961 55.64728 19271 ft 432 kts 121°
2026-05-07 16:40 24.95397 55.67567 19832 ft 435 kts 121°
2026-05-07 16:40 24.93829 55.70439 20331 ft 440 kts 122°
2026-05-07 16:41 24.92089 55.73239 20856 ft 445 kts 126°
2026-05-07 16:41 24.90226 55.75977 21364 ft 449 kts 128°
2026-05-07 16:41 24.88330 55.78724 21884 ft 453 kts 127°
2026-05-07 16:41 24.86435 55.81525 22360 ft 458 kts 127°
2026-05-07 16:42 24.84543 55.84368 22896 ft 461 kts 126°
2026-05-07 16:42 24.82608 55.87174 23328 ft 461 kts 133°
2026-05-07 16:42 24.80095 55.89371 23556 ft 466 kts 153°
2026-05-07 16:42 24.77101 55.90566 23896 ft 467 kts 171°
2026-05-07 16:43 24.73871 55.90825 24338 ft 465 kts 183°
2026-05-07 16:43 24.70681 55.90265 24730 ft 465 kts 200°
2026-05-07 16:43 24.67723 55.88890 25027 ft 464 kts 206°
2026-05-07 16:43 24.64773 55.87378 25354 ft 468 kts 207°
2026-05-07 16:44 24.61825 55.85862 25867 ft 468 kts 207°
2026-05-07 16:44 24.58863 55.84355 26260 ft 471 kts 206°
2026-05-07 16:44 24.55861 55.82849 26561 ft 476 kts 206°
2026-05-07 16:44 24.52833 55.81351 26924 ft 479 kts 206°
2026-05-07 16:45 24.49822 55.79875 27324 ft 481 kts 206°
2026-05-07 16:45 24.46765 55.78383 27723 ft 482 kts 206°
2026-05-07 16:45 24.43695 55.76888 28111 ft 483 kts 206°
2026-05-07 16:45 24.40616 55.75389 28462 ft 486 kts 206°
2026-05-07 16:46 24.37520 55.73882 28777 ft 488 kts 206°
2026-05-07 16:46 24.34410 55.72368 29079 ft 490 kts 206°
2026-05-07 16:46 24.31293 55.70851 29426 ft 491 kts 206°
2026-05-07 16:46 24.28176 55.69334 29861 ft 489 kts 206°
2026-05-07 16:47 24.25071 55.67825 30269 ft 488 kts 206°
2026-05-07 16:47 24.22014 55.66339 30662 ft 486 kts 206°
2026-05-07 16:47 24.18926 55.64839 31032 ft 485 kts 206°
2026-05-07 16:47 24.15844 55.63342 31397 ft 484 kts 206°
2026-05-07 16:48 24.12766 55.61849 31761 ft 483 kts 206°
2026-05-07 16:48 24.09697 55.60359 32137 ft 482 kts 206°
2026-05-07 16:48 24.06629 55.58872 32504 ft 481 kts 206°
2026-05-07 16:48 24.03568 55.57388 32858 ft 481 kts 206°
2026-05-07 16:49 24.00516 55.55910 33216 ft 480 kts 206°
2026-05-07 16:49 23.97478 55.54439 33576 ft 479 kts 206°
2026-05-07 16:49 23.94445 55.52970 33812 ft 481 kts 206°
2026-05-07 16:50 23.88353 55.50024 33845 ft 481 kts 206°
2026-05-07 16:50 23.82114 55.47482 33847 ft 479 kts 198°
2026-05-07 16:51 23.75679 55.45623 33847 ft 478 kts 197°
2026-05-07 16:51 23.69253 55.43751 33845 ft 478 kts 198°
2026-05-07 16:52 23.62825 55.41838 33855 ft 479 kts 198°
2026-05-07 16:52 23.56418 55.39946 33848 ft 481 kts 195°
2026-05-07 16:53 23.49714 55.39385 33858 ft 488 kts 179°
2026-05-07 16:53 23.43017 55.40809 33847 ft 494 kts 166°
2026-05-07 16:54 23.36419 55.42932 33843 ft 495 kts 166°
2026-05-07 16:54 23.29857 55.45064 33846 ft 496 kts 166°
2026-05-07 16:55 23.23238 55.47171 33845 ft 495 kts 166°
2026-05-07 16:55 23.16619 55.49258 33840 ft 495 kts 166°
2026-05-07 16:56 23.10019 55.51339 33839 ft 494 kts 166°
2026-05-07 16:56 23.00130 55.54439 33840 ft 493 kts 166°
2026-05-07 16:57 22.93592 55.56430 33835 ft 492 kts 166°
2026-05-07 16:57 22.86997 55.58434 33851 ft 492 kts 166°
2026-05-07 16:58 22.80409 55.60443 33849 ft 492 kts 166°
2026-05-07 16:58 22.73817 55.62453 33848 ft 492 kts 166°
2026-05-07 16:59 22.67272 55.64447 33840 ft 492 kts 166°
2026-05-07 16:59 22.60679 55.66454 33849 ft 492 kts 166°
2026-05-07 17:00 22.54085 55.68474 33852 ft 492 kts 166°
2026-05-07 17:00 22.47496 55.70496 33850 ft 493 kts 166°
2026-05-07 17:01 22.40941 55.72503 33844 ft 493 kts 166°
2026-05-07 17:01 22.34350 55.74519 33847 ft 493 kts 166°
2026-05-07 17:02 22.27749 55.76523 33846 ft 492 kts 168°
2026-05-07 17:02 22.21022 55.77705 33849 ft 489 kts 177°
2026-05-07 17:03 22.14246 55.78322 33845 ft 489 kts 177°
2026-05-07 17:03 22.07514 55.78954 33848 ft 489 kts 176°
2026-05-07 17:04 22.00735 55.79629 33849 ft 489 kts 176°
2026-05-07 17:04 21.93974 55.80312 33850 ft 490 kts 176°
2026-05-07 17:05 21.87186 55.80996 33846 ft 490 kts 176°
2026-05-07 17:05 21.80445 55.81673 33846 ft 490 kts 176°
2026-05-07 17:06 21.73661 55.82353 33847 ft 490 kts 176°
2026-05-07 17:06 21.66871 55.83030 33847 ft 490 kts 176°
2026-05-07 17:07 21.60086 55.83692 33845 ft 489 kts 176°
2026-05-07 17:07 21.53301 55.84353 33842 ft 489 kts 176°
2026-05-07 17:08 21.46570 55.85010 33841 ft 489 kts 176°
2026-05-07 17:08 21.39793 55.85672 33841 ft 489 kts 176°
2026-05-07 17:09 21.33017 55.86333 33843 ft 489 kts 176°
2026-05-07 17:09 21.26235 55.86993 33843 ft 489 kts 176°
2026-05-07 17:10 21.19502 55.87642 33840 ft 489 kts 176°
2026-05-07 17:10 21.12724 55.88293 33843 ft 489 kts 176°
2026-05-07 17:11 21.05959 55.88943 33838 ft 488 kts 176°
2026-05-07 17:11 20.99216 55.89590 33842 ft 487 kts 176°
2026-05-07 17:12 20.92512 55.90233 33839 ft 486 kts 176°
2026-05-07 17:12 20.85774 55.90879 33843 ft 486 kts 176°
2026-05-07 17:13 20.79040 55.91538 33842 ft 486 kts 176°
2026-05-07 17:13 20.72315 55.92201 33845 ft 485 kts 176°
2026-05-07 17:14 20.65587 55.92863 33846 ft 486 kts 176°
2026-05-07 17:14 20.58902 55.93519 33847 ft 486 kts 176°
2026-05-07 17:15 20.52170 55.94177 33848 ft 486 kts 176°
2026-05-07 17:15 20.45443 55.94837 33852 ft 485 kts 176°
2026-05-07 17:16 20.38716 55.95495 33852 ft 485 kts 175°
2026-05-07 17:16 20.32036 55.96147 33855 ft 485 kts 176°
2026-05-07 17:17 20.25313 55.96793 33856 ft 485 kts 175°
2026-05-07 17:17 20.18590 55.97430 33858 ft 485 kts 175°
2026-05-07 17:18 20.11865 55.98070 33859 ft 485 kts 175°
2026-05-07 17:18 20.05132 55.98541 33858 ft 485 kts 179°
2026-05-07 17:19 19.98453 55.98686 33864 ft 484 kts 180°
2026-05-07 17:19 19.91715 55.98813 33862 ft 485 kts 179°
2026-05-07 17:20 19.84972 55.98965 33863 ft 484 kts 180°
2026-05-07 17:20 19.78240 55.99129 33865 ft 484 kts 179°
2026-05-07 17:21 19.71548 55.99293 33863 ft 484 kts 179°
2026-05-07 17:21 19.64816 55.99457 33870 ft 484 kts 179°
2026-05-07 17:22 19.58084 55.99619 33868 ft 484 kts 179°
2026-05-07 17:22 19.51356 55.99782 33868 ft 484 kts 179°
2026-05-07 17:23 19.44612 55.99945 33876 ft 484 kts 179°
2026-05-07 17:23 19.37920 56.00108 33874 ft 484 kts 179°
2026-05-07 17:24 19.31175 56.00272 33871 ft 485 kts 179°
2026-05-07 17:24 19.24433 56.00435 33877 ft 485 kts 179°
2026-05-07 17:25 19.17693 56.00599 33875 ft 485 kts 179°
2026-05-07 17:25 19.11001 56.00761 33878 ft 484 kts 179°
2026-05-07 17:26 19.04268 56.00924 33879 ft 484 kts 179°
2026-05-07 17:26 18.97561 56.00852 33890 ft 483 kts 186°
2026-05-07 17:27 18.90961 55.99593 33893 ft 482 kts 194°
2026-05-07 17:27 18.84505 55.97817 33882 ft 483 kts 195°
2026-05-07 17:28 18.78000 55.96038 33894 ft 483 kts 194°
2026-05-07 17:28 18.71478 55.94287 33886 ft 484 kts 194°
2026-05-07 17:29 18.64954 55.92550 33892 ft 483 kts 194°
2026-05-07 17:29 18.58480 55.90829 33888 ft 483 kts 194°
2026-05-07 17:30 18.51962 55.89097 33890 ft 483 kts 194°
2026-05-07 17:30 18.45447 55.87365 33887 ft 483 kts 194°
2026-05-07 17:31 18.38931 55.85635 33896 ft 483 kts 194°
2026-05-07 17:31 18.32456 55.83917 33889 ft 483 kts 194°
2026-05-07 17:32 18.25936 55.82188 33884 ft 483 kts 194°
2026-05-07 17:32 18.20518 55.80752 33894 ft 483 kts 194°
2026-05-07 17:33 18.12888 55.78732 33888 ft 484 kts 194°
2026-05-07 17:33 18.06407 55.77017 33894 ft 484 kts 194°
2026-05-07 17:34 17.99890 55.75296 33883 ft 484 kts 194°
2026-05-07 17:34 17.93242 55.74143 33889 ft 485 kts 187°
2026-05-07 17:35 17.86538 55.73334 33881 ft 486 kts 187°
2026-05-07 17:35 17.79864 55.72522 33886 ft 486 kts 187°
2026-05-07 17:36 17.73147 55.71674 33889 ft 486 kts 187°
2026-05-07 17:36 17.66426 55.70814 33872 ft 487 kts 187°
2026-05-07 17:37 17.59703 55.69953 33880 ft 487 kts 187°
2026-05-07 17:37 17.53023 55.69100 33874 ft 487 kts 187°
2026-05-07 17:38 17.46290 55.68242 33877 ft 488 kts 187°
2026-05-07 17:38 17.39556 55.67384 33872 ft 488 kts 187°
2026-05-07 17:39 17.32817 55.66526 33875 ft 488 kts 187°
2026-05-07 17:39 17.26073 55.65669 33876 ft 488 kts 187°
2026-05-07 17:40 17.19373 55.64817 33873 ft 489 kts 187°
2026-05-07 17:40 17.12626 55.63960 33877 ft 489 kts 187°
2026-05-07 17:41 17.05871 55.63103 33877 ft 489 kts 187°
2026-05-07 17:41 16.99126 55.62247 33879 ft 489 kts 187°
2026-05-07 17:42 16.92411 55.61396 33882 ft 489 kts 187°
2026-05-07 17:42 16.85651 55.60541 33876 ft 489 kts 187°
2026-05-07 17:43 16.78888 55.59694 33876 ft 490 kts 187°
2026-05-07 17:43 16.72127 55.58849 33882 ft 490 kts 187°
2026-05-07 17:44 16.65397 55.58007 34192 ft 491 kts 187°
2026-05-07 17:44 16.62013 55.57584 34578 ft 487 kts 187°
2026-05-07 17:44 16.58658 55.57165 34924 ft 485 kts 187°
2026-05-07 17:45 16.55310 55.56746 35254 ft 484 kts 187°
2026-05-07 17:45 16.51966 55.56328 35511 ft 484 kts 187°
2026-05-07 17:45 16.48631 55.55911 35748 ft 484 kts 187°
2026-05-07 17:45 16.45276 55.55492 35807 ft 486 kts 187°
2026-05-07 17:46 16.38620 55.54662 35879 ft 483 kts 187°
2026-05-07 17:46 16.31955 55.53830 35875 ft 482 kts 187°
2026-05-07 17:47 16.25299 55.53001 35884 ft 481 kts 187°
2026-05-07 17:47 16.18647 55.52172 35884 ft 481 kts 187°
2026-05-07 17:48 16.12042 55.51350 35886 ft 481 kts 187°
2026-05-07 17:48 16.05388 55.50522 35888 ft 482 kts 187°
2026-05-07 17:49 15.98742 55.49696 35883 ft 482 kts 187°
2026-05-07 17:49 15.92071 55.48867 35886 ft 483 kts 187°
2026-05-07 17:50 15.85442 55.48044 35881 ft 483 kts 187°
2026-05-07 17:50 15.78767 55.47216 35884 ft 483 kts 187°
2026-05-07 17:51 15.72081 55.46387 35881 ft 484 kts 187°
2026-05-07 17:51 15.65403 55.45560 35881 ft 484 kts 187°
2026-05-07 17:52 15.58765 55.44738 35884 ft 483 kts 187°
2026-05-07 17:52 15.52091 55.43912 35881 ft 483 kts 187°
2026-05-07 17:53 15.45422 55.43088 35883 ft 483 kts 187°
2026-05-07 17:53 15.38750 55.42263 35879 ft 483 kts 187°
2026-05-07 17:54 15.33211 55.41579 35878 ft 483 kts 187°
2026-05-07 17:54 15.25461 55.40622 35886 ft 482 kts 187°
2026-05-07 17:55 15.18795 55.39800 35881 ft 483 kts 187°
2026-05-07 17:55 15.12127 55.38969 35884 ft 482 kts 187°
2026-05-07 17:56 15.05463 55.38132 35881 ft 483 kts 187°
2026-05-07 17:56 14.98852 55.37303 35885 ft 482 kts 187°
2026-05-07 17:57 14.93267 55.36605 35884 ft 482 kts 187°
2026-05-07 17:57 14.85521 55.35636 35879 ft 483 kts 187°
2026-05-07 17:58 14.78860 55.34804 35885 ft 482 kts 187°
2026-05-07 17:58 14.72242 55.33978 35883 ft 482 kts 187°
2026-05-07 17:59 14.65585 55.33147 35883 ft 482 kts 187°
2026-05-07 17:59 14.58931 55.32318 35882 ft 481 kts 187°
2026-05-07 18:00 14.52277 55.31488 35888 ft 481 kts 188°
2026-05-07 18:00 14.45634 55.30661 35890 ft 481 kts 187°
2026-05-07 18:01 14.39038 55.29840 35884 ft 481 kts 187°
2026-05-07 18:01 14.32393 55.29014 35889 ft 481 kts 187°
2026-05-07 18:02 14.22431 55.27775 35883 ft 481 kts 187°
2026-05-07 18:03 14.15791 55.26951 35888 ft 481 kts 187°
2026-05-07 18:03 14.09196 55.26131 35881 ft 481 kts 187°
2026-05-07 18:04 14.02550 55.25307 35888 ft 481 kts 188°
2026-05-07 18:04 13.95940 55.24487 35883 ft 481 kts 187°
2026-05-07 18:05 13.89292 55.23663 35888 ft 481 kts 187°
2026-05-07 18:05 13.82652 55.22830 35885 ft 481 kts 188°
2026-05-07 18:06 13.76054 55.21997 35883 ft 481 kts 188°
2026-05-07 18:06 13.69412 55.21160 35888 ft 481 kts 188°
2026-05-07 18:07 13.62771 55.20324 35882 ft 481 kts 187°
2026-05-07 18:07 13.56173 55.19496 35887 ft 481 kts 187°
2026-05-07 18:08 13.49536 55.18662 35883 ft 481 kts 188°
2026-05-07 18:08 13.42894 55.17828 35889 ft 481 kts 187°
2026-05-07 18:09 13.36252 55.16995 35886 ft 481 kts 188°
2026-05-07 18:09 13.29614 55.16163 35888 ft 481 kts 187°
2026-05-07 18:10 13.23022 55.15337 35890 ft 480 kts 187°
2026-05-07 18:10 13.16382 55.14505 35884 ft 481 kts 187°
2026-05-07 18:11 13.09742 55.13674 35891 ft 481 kts 187°
2026-05-07 18:11 13.03095 55.12843 35889 ft 481 kts 187°
2026-05-07 18:12 12.97593 55.12155 35891 ft 481 kts 187°
2026-05-07 18:12 12.89871 55.11189 35887 ft 481 kts 187°
2026-05-07 18:13 12.83222 55.10359 35895 ft 481 kts 187°
2026-05-07 18:13 12.76578 55.09530 35890 ft 481 kts 187°
2026-05-07 18:14 12.69928 55.08700 35885 ft 481 kts 187°
2026-05-07 18:14 12.63325 55.07877 35894 ft 481 kts 187°
2026-05-07 18:15 12.56677 55.07048 35891 ft 482 kts 187°
2026-05-07 18:15 12.50026 55.06220 35897 ft 481 kts 187°
2026-05-07 18:16 12.43378 55.05392 35892 ft 481 kts 187°
2026-05-07 18:16 12.36772 55.04570 35894 ft 481 kts 187°
2026-05-07 18:17 12.30132 55.03744 35891 ft 481 kts 187°
2026-05-07 18:17 12.23485 55.02917 35896 ft 481 kts 187°
2026-05-07 18:18 12.16838 55.02091 35890 ft 481 kts 187°
2026-05-07 18:18 12.10234 55.01271 35893 ft 481 kts 187°
2026-05-07 18:19 12.03589 55.00446 35898 ft 481 kts 187°
2026-05-07 18:19 11.98129 54.99928 35897 ft 481 kts 181°
2026-05-07 18:20 11.90297 54.99941 35902 ft 482 kts 179°
2026-05-07 18:20 11.83590 54.99989 35894 ft 482 kts 180°
2026-05-07 18:21 11.76925 55.00004 35897 ft 482 kts 180°
2026-05-07 18:21 11.70209 55.00003 35897 ft 482 kts 180°
2026-05-07 18:22 11.64626 55.00001 35896 ft 483 kts 180°
2026-05-07 18:22 11.57908 55.00000 35903 ft 482 kts 180°
2026-05-07 18:23 11.50070 55.00000 35905 ft 488 kts 180°
2026-05-07 18:23 11.44354 55.00000 35904 ft 492 kts 180°
2026-05-07 18:24 11.36357 55.00000 35902 ft 496 kts 180°
2026-05-07 18:24 11.30615 55.00000 35895 ft 496 kts 180°
2026-05-07 18:25 11.22671 55.00000 35885 ft 487 kts 180°
2026-05-07 18:25 11.17050 55.00000 35894 ft 485 kts 180°
2026-05-07 18:26 11.10308 55.00000 35900 ft 485 kts 180°
2026-05-07 18:26 11.03557 55.00000 35906 ft 486 kts 179°
2026-05-07 18:27 10.95679 55.00000 35900 ft 489 kts 180°
2026-05-07 18:27 10.90012 55.00000 35899 ft 491 kts 179°
2026-05-07 18:28 10.83176 55.00000 35903 ft 492 kts 180°
2026-05-07 18:28 10.76325 55.00000 35895 ft 492 kts 179°
2026-05-07 18:29 10.69476 55.00000 35896 ft 492 kts 179°
2026-05-07 18:29 10.62640 55.00000 35891 ft 491 kts 179°
2026-05-07 18:30 10.55866 55.00000 35895 ft 490 kts 179°
2026-05-07 18:30 10.49057 55.00000 35899 ft 489 kts 179°
2026-05-07 18:31 10.42260 55.00000 35899 ft 488 kts 180°
2026-05-07 18:31 10.35460 55.00000 35899 ft 489 kts 179°
2026-05-07 18:32 10.28706 55.00000 35893 ft 489 kts 179°
2026-05-07 18:32 10.21896 55.00000 35894 ft 490 kts 179°
2026-05-07 18:33 10.15072 55.00000 35898 ft 490 kts 180°
2026-05-07 18:33 10.08240 55.00000 35894 ft 491 kts 180°
2026-05-07 18:34 10.01447 55.00000 35896 ft 492 kts 179°
2026-05-07 18:34 9.94613 55.00000 35891 ft 492 kts 180°
2026-05-07 18:35 9.87765 55.00000 35894 ft 492 kts 179°
2026-05-07 18:35 9.80918 55.00000 35897 ft 492 kts 179°
2026-05-07 18:36 9.74061 55.00000 35898 ft 492 kts 180°
2026-05-07 18:36 9.67257 55.00000 35901 ft 493 kts 179°
2026-05-07 18:37 9.60400 55.00000 35897 ft 493 kts 180°
2026-05-07 18:37 9.53543 55.00000 35901 ft 493 kts 180°
2026-05-07 18:38 9.46728 55.00000 35896 ft 493 kts 179°
2026-05-07 18:38 9.39874 55.00000 35897 ft 493 kts 180°
2026-05-07 18:39 9.33014 55.00000 35896 ft 493 kts 179°
2026-05-07 18:39 9.26154 55.00000 35892 ft 493 kts 179°
2026-05-07 18:40 9.19338 55.00000 35897 ft 493 kts 179°
2026-05-07 18:40 9.12477 55.00000 35897 ft 493 kts 179°
2026-05-07 18:41 9.05607 55.00000 35901 ft 494 kts 179°
2026-05-07 18:41 8.98752 55.00000 35897 ft 494 kts 179°
2026-05-07 18:42 8.91873 55.00000 35900 ft 494 kts 179°
2026-05-07 18:42 8.85045 55.00000 35900 ft 494 kts 179°
2026-05-07 18:43 8.78165 55.00000 35897 ft 494 kts 179°
2026-05-07 18:43 8.71283 55.00000 35899 ft 494 kts 179°
2026-05-07 18:44 8.64401 55.00000 35899 ft 495 kts 179°
2026-05-07 18:44 8.57560 55.00000 35898 ft 495 kts 179°
2026-05-07 18:45 8.50683 55.00000 35900 ft 495 kts 179°
2026-05-07 18:45 8.43802 55.00000 35896 ft 494 kts 179°
2026-05-07 18:46 8.36917 55.00000 35899 ft 494 kts 179°
2026-05-07 18:46 8.30087 55.00000 35897 ft 494 kts 179°
2026-05-07 18:47 8.23209 55.00000 35895 ft 494 kts 179°
2026-05-07 18:47 8.16335 55.00000 35896 ft 494 kts 179°
2026-05-07 18:48 8.09462 55.00000 35901 ft 494 kts 179°
2026-05-07 18:48 8.02639 55.00000 35900 ft 494 kts 179°
2026-05-07 18:49 7.95782 55.00000 35896 ft 494 kts 179°
2026-05-07 18:49 7.88913 55.00000 35897 ft 493 kts 179°
2026-05-07 18:50 7.82047 55.00000 35896 ft 493 kts 179°
2026-05-07 18:50 7.75226 55.00000 35895 ft 493 kts 179°
2026-05-07 18:51 7.68364 55.00000 35893 ft 493 kts 179°
2026-05-07 18:51 7.61501 55.00000 35896 ft 493 kts 179°
2026-05-07 18:52 7.54641 55.00000 35899 ft 493 kts 179°
2026-05-07 18:52 7.47780 55.00000 35897 ft 493 kts 179°
2026-05-07 18:53 7.40963 55.00000 35893 ft 493 kts 179°
2026-05-07 18:53 7.34101 55.00000 35896 ft 493 kts 179°
2026-05-07 18:54 7.27233 55.00000 35897 ft 494 kts 179°
2026-05-07 18:54 7.20358 55.00000 35895 ft 494 kts 179°
2026-05-07 18:55 7.13528 55.00000 35897 ft 494 kts 179°
2026-05-07 18:55 7.06654 55.00000 35895 ft 494 kts 179°
2026-05-07 18:56 6.99789 55.00000 35899 ft 494 kts 179°
2026-05-07 18:56 6.92919 55.00000 35900 ft 494 kts 179°
2026-05-07 18:57 6.86050 55.00000 35896 ft 494 kts 179°
2026-05-07 18:57 6.79231 55.00000 35898 ft 493 kts 179°
2026-05-07 18:58 6.72382 55.00000 35896 ft 492 kts 179°
2026-05-07 18:58 6.65549 55.00000 35896 ft 491 kts 179°
2026-05-07 18:59 6.58725 55.00000 35895 ft 490 kts 179°
2026-05-07 18:59 6.51909 55.00000 35895 ft 490 kts 179°
2026-05-07 19:00 6.45142 55.00000 35895 ft 490 kts 179°
2026-05-07 19:00 6.38327 55.00000 35899 ft 490 kts 179°
2026-05-07 19:01 6.31515 55.00000 35903 ft 490 kts 179°
2026-05-07 19:01 6.24741 55.00000 35895 ft 490 kts 179°
2026-05-07 19:02 6.17916 55.00000 35898 ft 491 kts 179°
2026-05-07 19:02 6.11088 55.00000 35898 ft 491 kts 179°
2026-05-07 19:03 6.04249 55.00000 35885 ft 491 kts 179°
2026-05-07 19:03 5.97424 55.00000 35896 ft 492 kts 179°
2026-05-07 19:04 5.90630 55.00000 35897 ft 492 kts 179°
2026-05-07 19:04 5.83795 55.00000 35898 ft 492 kts 179°
2026-05-07 19:05 5.76953 55.00000 35897 ft 492 kts 179°
2026-05-07 19:05 5.70114 55.00000 35898 ft 492 kts 179°
2026-05-07 19:06 5.63319 55.00000 35902 ft 491 kts 179°
2026-05-07 19:06 5.53056 55.00000 35902 ft 492 kts 179°
2026-05-07 19:07 5.46211 55.00000 35899 ft 492 kts 179°
2026-05-07 19:07 5.39360 55.00019 35887 ft 492 kts 177°
2026-05-07 19:08 5.32569 55.00456 35900 ft 492 kts 174°
2026-05-07 19:08 5.25740 55.00999 35899 ft 493 kts 174°
2026-05-07 19:09 5.18904 55.01530 35898 ft 493 kts 174°
2026-05-07 19:09 5.12059 55.02040 35904 ft 493 kts 174°
2026-05-07 19:10 5.05216 55.02542 35900 ft 493 kts 174°
2026-05-07 19:10 4.98435 55.03039 35894 ft 493 kts 174°
2026-05-07 19:11 4.91595 55.03542 35903 ft 493 kts 174°
2026-05-07 19:11 4.84750 55.04046 35901 ft 493 kts 174°
2026-05-07 19:12 4.77906 55.04550 35885 ft 493 kts 174°
2026-05-07 19:12 4.71107 55.05050 35889 ft 493 kts 174°
2026-05-07 19:13 4.64258 55.05553 35898 ft 493 kts 174°
2026-05-07 19:13 4.57411 55.06057 35901 ft 494 kts 174°
2026-05-07 19:14 4.50558 55.06561 35900 ft 494 kts 174°
2026-05-07 19:14 4.43750 55.07061 35890 ft 494 kts 174°
2026-05-07 19:15 4.36897 55.07565 35891 ft 494 kts 174°
2026-05-07 19:15 4.30040 55.08069 35903 ft 494 kts 174°
2026-05-07 19:16 4.23176 55.08573 35892 ft 495 kts 174°
2026-05-07 19:16 4.16358 55.09074 35897 ft 495 kts 174°
2026-05-07 19:17 4.09490 55.09578 35889 ft 495 kts 174°
2026-05-07 19:17 4.02618 55.10082 35901 ft 495 kts 174°
2026-05-07 19:18 3.95754 55.10584 35893 ft 495 kts 174°
2026-05-07 19:18 3.88874 55.11088 35898 ft 496 kts 174°
2026-05-07 19:19 3.82042 55.11588 35889 ft 496 kts 174°
2026-05-07 19:19 3.75158 55.12092 35902 ft 496 kts 175°
2026-05-07 19:20 3.68275 55.12596 35900 ft 496 kts 175°
2026-05-07 19:20 3.61389 55.13100 35893 ft 496 kts 175°
2026-05-07 19:21 3.54551 55.13600 35890 ft 496 kts 175°
2026-05-07 19:21 3.47697 55.14101 35897 ft 496 kts 175°
2026-05-07 19:22 3.40812 55.14605 35902 ft 496 kts 175°
2026-05-07 19:22 3.33972 55.15105 35902 ft 496 kts 175°
2026-05-07 19:23 3.27094 55.15608 35904 ft 496 kts 175°
2026-05-07 19:23 3.20212 55.16111 35900 ft 496 kts 175°
2026-05-07 19:24 3.13331 55.16615 35900 ft 496 kts 175°
2026-05-07 19:24 3.06497 55.17114 35901 ft 496 kts 175°
2026-05-07 19:25 2.99635 55.17616 35895 ft 495 kts 175°
2026-05-07 19:25 2.92760 55.18118 35904 ft 495 kts 175°
2026-05-07 19:26 2.85891 55.18620 35899 ft 495 kts 175°
2026-05-07 19:26 2.79020 55.19122 35905 ft 495 kts 175°
2026-05-07 19:27 2.72197 55.19620 35895 ft 495 kts 175°
2026-05-07 19:27 2.65336 55.20122 35896 ft 494 kts 175°
2026-05-07 19:28 2.58474 55.20623 35894 ft 494 kts 175°
2026-05-07 19:28 2.51614 55.21124 35904 ft 494 kts 175°
2026-05-07 19:29 2.44801 55.21621 35903 ft 494 kts 174°
2026-05-07 19:29 2.37940 55.22123 35896 ft 494 kts 175°
2026-05-07 19:30 2.31077 55.22624 35904 ft 495 kts 174°
2026-05-07 19:30 2.24206 55.23125 35907 ft 495 kts 174°
2026-05-07 19:31 2.17338 55.23627 35903 ft 495 kts 175°
2026-05-07 19:31 2.10512 55.24125 35901 ft 495 kts 175°
2026-05-07 19:32 2.03637 55.24627 35905 ft 496 kts 175°
2026-05-07 19:32 1.96767 55.25128 35901 ft 496 kts 175°
2026-05-07 19:33 1.89889 55.25630 35897 ft 496 kts 175°
2026-05-07 19:33 1.83052 55.26129 35899 ft 496 kts 175°
2026-05-07 19:34 1.76174 55.26631 35895 ft 496 kts 175°
2026-05-07 19:34 1.69289 55.27133 35903 ft 496 kts 175°
2026-05-07 19:35 1.62403 55.27635 35897 ft 496 kts 175°
2026-05-07 19:35 1.55516 55.28138 35896 ft 496 kts 175°
2026-05-07 19:36 1.48681 55.28636 35894 ft 495 kts 175°
2026-05-07 19:36 1.41809 55.29137 35903 ft 495 kts 175°
2026-05-07 19:37 1.34947 55.29638 35905 ft 494 kts 175°
2026-05-07 19:37 1.28099 55.30135 35899 ft 493 kts 175°
2026-05-07 19:38 1.21297 55.30628 35900 ft 494 kts 175°
2026-05-07 19:38 1.14445 55.31124 35903 ft 494 kts 175°
2026-05-07 19:39 1.07588 55.31620 35905 ft 494 kts 175°
2026-05-07 19:39 1.00716 55.32119 35903 ft 495 kts 175°
2026-05-07 19:40 0.93906 55.32612 35907 ft 496 kts 175°
2026-05-07 19:40 0.87026 55.33111 35907 ft 496 kts 175°
2026-05-07 19:41 0.80142 55.33609 35896 ft 496 kts 175°
2026-05-07 19:41 0.73255 55.34108 35899 ft 496 kts 175°
2026-05-07 19:42 0.66365 55.34607 35897 ft 496 kts 175°
2026-05-07 19:42 0.59525 55.35103 35897 ft 496 kts 175°
2026-05-07 19:43 0.52636 55.35602 35896 ft 496 kts 175°
2026-05-07 19:43 0.45744 55.36101 35904 ft 496 kts 175°
2026-05-07 19:44 0.38855 55.36600 35897 ft 497 kts 175°
2026-05-07 19:44 0.31964 55.37100 35894 ft 497 kts 175°
2026-05-07 19:45 0.25115 55.37596 35897 ft 496 kts 175°
2026-05-07 19:45 0.18225 55.38095 35901 ft 496 kts 175°
2026-05-07 19:46 0.11336 55.38594 35901 ft 496 kts 175°
2026-05-07 19:46 0.04448 55.39093 35900 ft 496 kts 175°
2026-05-07 19:47 -0.02377 55.39587 35898 ft 496 kts 175°
2026-05-07 19:47 -0.09265 55.40086 35895 ft 496 kts 175°
2026-05-07 19:48 -0.16147 55.40585 35894 ft 496 kts 175°
2026-05-07 19:48 -0.23031 55.41084 35900 ft 496 kts 175°
2026-05-07 19:49 -0.29865 55.41579 35894 ft 496 kts 175°
2026-05-07 19:49 -0.36747 55.42077 35900 ft 496 kts 175°
2026-05-07 19:50 -0.43630 55.42576 35892 ft 496 kts 175°
2026-05-07 19:50 -0.50507 55.43074 35892 ft 496 kts 175°
2026-05-07 19:51 -0.57392 55.43573 35894 ft 496 kts 175°
2026-05-07 19:51 -0.64225 55.44068 35890 ft 496 kts 175°
2026-05-07 19:52 -0.71111 55.44567 35897 ft 496 kts 175°
2026-05-07 19:52 -0.77993 55.45066 35900 ft 496 kts 175°
2026-05-07 19:53 -0.84880 55.45565 35896 ft 496 kts 175°
2026-05-07 19:53 -0.91724 55.46061 35903 ft 496 kts 175°
2026-05-07 19:54 -0.98612 55.46560 35898 ft 497 kts 175°
2026-05-07 19:54 -1.05484 55.47058 35891 ft 497 kts 175°
2026-05-07 19:55 -1.12378 55.47558 35903 ft 497 kts 175°
2026-05-07 19:55 -1.19240 55.48056 35897 ft 498 kts 175°
2026-05-07 19:56 -1.26149 55.48557 35902 ft 498 kts 175°
2026-05-07 19:56 -1.33064 55.49059 35902 ft 498 kts 175°
2026-05-07 19:57 -1.39986 55.49561 35892 ft 499 kts 175°
2026-05-07 19:57 -1.46912 55.50064 35893 ft 499 kts 175°
2026-05-07 19:58 -1.53820 55.50565 35895 ft 502 kts 175°
2026-05-07 19:58 -1.60758 55.51068 35884 ft 498 kts 175°
2026-05-07 19:59 -1.67652 55.51568 35891 ft 496 kts 175°
2026-05-07 19:59 -1.74476 55.52064 35896 ft 495 kts 175°
2026-05-07 20:00 -1.81350 55.52563 35905 ft 496 kts 175°
2026-05-07 20:00 -1.88239 55.53063 35900 ft 497 kts 175°
2026-05-07 20:01 -1.95155 55.53565 35898 ft 499 kts 175°
2026-05-07 20:01 -2.02031 55.54064 35897 ft 501 kts 175°
2026-05-07 20:02 -2.08991 55.54570 35899 ft 502 kts 175°
2026-05-07 20:02 -2.15960 55.55076 35897 ft 502 kts 175°
2026-05-07 20:03 -2.22928 55.55582 35900 ft 502 kts 175°
2026-05-07 20:03 -2.29847 55.56084 35892 ft 502 kts 175°
2026-05-07 20:04 -2.36805 55.56590 35894 ft 501 kts 175°
2026-05-07 20:04 -2.43759 55.57095 35894 ft 501 kts 175°
2026-05-07 20:05 -2.50707 55.57599 35897 ft 500 kts 175°
2026-05-07 20:05 -2.57596 55.58100 35899 ft 500 kts 175°
2026-05-07 20:06 -2.64537 55.58604 35901 ft 500 kts 175°
2026-05-07 20:06 -2.71465 55.59108 35796 ft 497 kts 175°
2026-05-07 20:07 -2.74903 55.59357 35313 ft 493 kts 175°
2026-05-07 20:07 -2.78330 55.59607 34504 ft 496 kts 175°
2026-05-07 20:07 -2.81734 55.59854 33885 ft 495 kts 175°
2026-05-07 20:07 -2.85160 55.60103 33276 ft 492 kts 175°
2026-05-07 20:08 -2.88561 55.60350 32762 ft 488 kts 175°
2026-05-07 20:08 -2.91932 55.60595 32239 ft 484 kts 175°
2026-05-07 20:08 -2.95270 55.60838 31755 ft 480 kts 175°
2026-05-07 20:08 -2.98588 55.61079 31258 ft 476 kts 175°
2026-05-07 20:09 -3.01857 55.61316 30766 ft 473 kts 175°
2026-05-07 20:09 -3.05127 55.61554 30265 ft 470 kts 175°
2026-05-07 20:09 -3.08332 55.61788 29746 ft 467 kts 175°
2026-05-07 20:10 -3.14758 55.62255 28680 ft 459 kts 175°
2026-05-07 20:10 -3.17929 55.62486 28176 ft 455 kts 175°
2026-05-07 20:10 -3.21069 55.62714 27687 ft 450 kts 175°
2026-05-07 20:10 -3.24184 55.62941 27206 ft 447 kts 175°
2026-05-07 20:11 -3.27270 55.63165 26728 ft 443 kts 175°
2026-05-07 20:11 -3.30291 55.63385 26261 ft 440 kts 175°
2026-05-07 20:11 -3.33332 55.63606 25789 ft 437 kts 175°
2026-05-07 20:11 -3.36354 55.63826 25308 ft 434 kts 175°
2026-05-07 20:12 -3.39356 55.64045 24830 ft 432 kts 175°
2026-05-07 20:12 -3.42344 55.64263 24366 ft 430 kts 175°
2026-05-07 20:12 -3.45318 55.64479 23896 ft 427 kts 175°
2026-05-07 20:12 -3.48280 55.64695 23421 ft 426 kts 175°
2026-05-07 20:13 -3.51226 55.64909 22881 ft 423 kts 175°
2026-05-07 20:13 -3.54149 55.65122 22400 ft 420 kts 175°
2026-05-07 20:13 -3.57010 55.65330 21940 ft 416 kts 175°
2026-05-07 20:13 -3.59885 55.65539 21473 ft 412 kts 175°
2026-05-07 20:14 -3.62733 55.65746 21034 ft 409 kts 175°
2026-05-07 20:14 -3.65564 55.65953 20584 ft 406 kts 175°
2026-05-07 20:14 -3.68371 55.66157 20145 ft 403 kts 175°
2026-05-07 20:14 -3.71156 55.66360 19699 ft 400 kts 175°
2026-05-07 20:15 -3.73923 55.66561 19241 ft 398 kts 175°
2026-05-07 20:15 -3.76681 55.66762 18794 ft 396 kts 175°
2026-05-07 20:15 -3.79385 55.66959 18357 ft 394 kts 175°
2026-05-07 20:15 -3.82113 55.67157 17864 ft 391 kts 175°
2026-05-07 20:16 -3.84747 55.67349 17369 ft 368 kts 175°
2026-05-07 20:16 -3.87258 55.67531 16925 ft 360 kts 175°
2026-05-07 20:16 -3.89757 55.67714 16471 ft 361 kts 174°
2026-05-07 20:16 -3.92260 55.67896 16023 ft 360 kts 175°
2026-05-07 20:17 -3.94754 55.68078 15573 ft 359 kts 174°
2026-05-07 20:17 -3.97244 55.68260 15132 ft 358 kts 174°
2026-05-07 20:17 -3.99691 55.68439 14703 ft 357 kts 174°
2026-05-07 20:17 -4.02140 55.68617 14279 ft 356 kts 174°
2026-05-07 20:18 -4.04608 55.68797 13858 ft 355 kts 175°
2026-05-07 20:18 -4.07073 55.68977 13398 ft 354 kts 174°
2026-05-07 20:18 -4.09528 55.69156 12924 ft 353 kts 174°
2026-05-07 20:18 -4.11980 55.69334 12460 ft 353 kts 175°
2026-05-07 20:19 -4.14422 55.69513 11996 ft 352 kts 175°
2026-05-07 20:19 -4.16863 55.69691 11542 ft 351 kts 175°
2026-05-07 20:19 -4.19260 55.69866 11099 ft 350 kts 175°
2026-05-07 20:19 -4.21688 55.70043 10659 ft 349 kts 175°
2026-05-07 20:20 -4.24106 55.70219 10226 ft 348 kts 175°
2026-05-07 20:20 -4.26500 55.70316 9795 ft 341 kts 185°
2026-05-07 20:20 -4.28681 55.69678 9573 ft 314 kts 208°
2026-05-07 20:20 -4.30336 55.68391 9246 ft 293 kts 226°
2026-05-07 20:21 -4.31568 55.66828 8737 ft 284 kts 237°
2026-05-07 20:21 -4.32349 55.65009 8423 ft 282 kts 253°
2026-05-07 20:21 -4.32851 55.63161 8426 ft 271 kts 254°
2026-05-07 20:21 -4.33332 55.61356 8438 ft 275 kts 254°
2026-05-07 20:22 -4.33834 55.59477 8447 ft 282 kts 254°
2026-05-07 20:22 -4.34349 55.57567 8458 ft 285 kts 254°
2026-05-07 20:22 -4.34867 55.55655 8413 ft 286 kts 253°
2026-05-07 20:22 -4.35401 55.53702 7968 ft 294 kts 254°
2026-05-07 20:23 -4.35944 55.51720 7560 ft 296 kts 253°
2026-05-07 20:23 -4.36490 55.49734 7200 ft 295 kts 253°
2026-05-07 20:23 -4.37023 55.47794 6874 ft 282 kts 253°
2026-05-07 20:23 -4.37523 55.45979 6630 ft 267 kts 253°
2026-05-07 20:24 -4.38004 55.44230 6334 ft 254 kts 253°
2026-05-07 20:24 -4.38462 55.42569 6090 ft 240 kts 253°
2026-05-07 20:24 -4.38896 55.40995 5857 ft 229 kts 252°
2026-05-07 20:24 -4.39310 55.39490 5640 ft 220 kts 252°
2026-05-07 20:25 -4.39711 55.38038 5430 ft 212 kts 252°
2026-05-07 20:25 -4.40098 55.36636 5197 ft 205 kts 252°
2026-05-07 20:25 -4.40611 55.35325 4968 ft 201 kts 228°
2026-05-07 20:25 -4.41730 55.34592 4952 ft 193 kts 191°
2026-05-07 20:26 -4.43031 55.34616 4662 ft 187 kts 159°
2026-05-07 20:26 -4.44133 55.35250 4597 ft 186 kts 144°
2026-05-07 20:26 -4.45226 55.36011 4449 ft 193 kts 144°
2026-05-07 20:26 -4.46325 55.36772 4360 ft 191 kts 144°
2026-05-07 20:27 -4.47426 55.37538 4147 ft 192 kts 144°
2026-05-07 20:27 -4.48492 55.38285 3966 ft 182 kts 144°
2026-05-07 20:27 -4.49508 55.38994 3746 ft 174 kts 144°
2026-05-07 20:27 -4.50474 55.39669 3590 ft 164 kts 143°
2026-05-07 20:28 -4.51366 55.40295 3517 ft 154 kts 144°
2026-05-07 20:28 -4.52253 55.40915 3347 ft 159 kts 143°
2026-05-07 20:28 -4.53141 55.41546 3033 ft 152 kts 143°
2026-05-07 20:28 -4.53985 55.42139 2775 ft 146 kts 144°
2026-05-07 20:29 -4.54830 55.42719 2454 ft 149 kts 144°
2026-05-07 20:29 -4.55658 55.43299 2190 ft 141 kts 143°
2026-05-07 20:29 -4.56497 55.43844 2002 ft 147 kts 149°
2026-05-07 20:29 -4.57408 55.44339 1953 ft 149 kts 150°
2026-05-07 20:30 -4.58311 55.44810 2044 ft 147 kts 152°
2026-05-07 20:30 -4.59237 55.45263 2025 ft 148 kts 152°
2026-05-07 20:30 -4.60176 55.45720 1860 ft 147 kts 154°
2026-05-07 20:30 -4.61099 55.46146 1605 ft 145 kts 153°
2026-05-07 20:31 -4.61972 55.46613 1376 ft 141 kts 148°
2026-05-07 20:31 -4.62793 55.47147 1163 ft 142 kts 142°
2026-05-07 20:31 -4.63550 55.47777 983 ft 142 kts 139°
2026-05-07 20:31 -4.64284 55.48443 841 ft 144 kts 137°
2026-05-07 20:32 -4.65011 55.49147 625 ft 142 kts 137°
2026-05-07 20:32 -4.65711 55.49800 380 ft 139 kts 127°
2026-05-07 20:32 -4.66287 55.50565 216 ft 138 kts 126°
2026-05-07 20:32 -4.66852 55.51375 54 ft 146 kts 126°
2026-05-07 20:33 -4.67425 55.52180 16 ft 131 kts 122°
2026-05-07 20:33 -4.67838 55.52769 12 ft 58 kts 125°
2026-05-07 20:33 -4.67874 55.52820 12 ft 11 kts 125°
2026-05-07 20:33 -4.67889 55.52841 12 ft 13 kts 125°
2026-05-07 20:34 -4.67962 55.52946 13 ft 23 kts 125°
2026-05-07 20:34 -4.68063 55.53088 15 ft 27 kts 126°
2026-05-07 20:34 -4.68171 55.53149 15 ft 17 kts 167°
2026-05-07 20:34 -4.68263 55.53211 16 ft 17 kts 96°
2026-05-07 20:35 -4.68178 55.53253 17 ft 15 kts 332°
2026-05-07 20:35 -4.68117 55.53161 15 ft 18 kts 303°
2026-05-07 20:35 -4.68040 55.53048 14 ft 21 kts 304°
2026-05-07 20:35 -4.67961 55.52936 13 ft 19 kts 308°
2026-05-07 20:36 -4.67884 55.52827 12 ft 19 kts 305°
2026-05-07 20:36 -4.67808 55.52719 12 ft 19 kts 305°
2026-05-07 20:36 -4.67730 55.52611 11 ft 19 kts 305°
2026-05-07 20:36 -4.67654 55.52501 13 ft 19 kts 304°
2026-05-07 20:37 -4.67577 55.52392 13 ft 19 kts 305°
2026-05-07 20:37 -4.67500 55.52283 14 ft 19 kts 305°
2026-05-07 20:37 -4.67423 55.52173 15 ft 19 kts 305°
2026-05-07 20:37 -4.67347 55.52064 15 ft 19 kts 305°
2026-05-07 20:38 -4.67271 55.51955 15 ft 19 kts 305°
2026-05-07 20:38 -4.67195 55.51844 15 ft 19 kts 304°
2026-05-07 20:38 -4.67121 55.51736 13 ft 19 kts 307°
2026-05-07 20:38 -4.67044 55.51627 14 ft 19 kts 304°
2026-05-07 20:39 -4.66968 55.51517 14 ft 19 kts 304°
2026-05-07 20:39 -4.66900 55.51411 14 ft 12 kts 287°
2026-05-07 20:39 -4.66942 55.51348 14 ft 12 kts 212°
2026-05-07 20:39 -4.67007 55.51294 14 ft 12 kts 237°
2026-05-07 20:40 -4.67029 55.51273 14 ft 2 kts 206°
2026-05-07 20:40 -4.67044 55.51269 14 ft 2 kts 195°
2026-05-07 20:40 -4.67062 55.51265 14 ft 3 kts 192°
2026-05-07 20:40 -4.67082 55.51261 14 ft 3 kts 190°
2026-05-07 20:41 -4.67090 55.51260 14 ft 0 kts 190°